Weather in Kojori

Georgia     41°39′43″N   44°42′26″E
temp.,
°C
wind,
m/s
gust,
m/s
humid.,
%
clouds,
%
prec.,
mm/h
press.,
hPa
HPBL,
m
23 april, fri
fri2301:00+7nnw71385100 0.6 1022621
04:00+7nnw6138747 0.8 1022650
07:00+7nnw5138991 0.3 1023674
10:00+11nw611642 0.3 1023841
13:00+16nnw68400 0.0 10211035
16:00+18nnw68323 0.0 10191169
19:00+16nnw373321 0.0 1020744
22:00+12nw23450 0.0 102178
24 april, sat
sat2401:00+11e12470 0.0 102338
04:00+10sse2487100 0.0 1023645
07:00+10sse2288100 0.3 1024379
10:00+11sse128298 0.3 1023504
13:00+17se225359 0.0 1019990
16:00+20ese133791 0.0 10161207
19:00+19nnw25441 0.0 1017682
22:00+14nw35680 0.0 1019283
25 april, sun
sun2501:00+12nnw357684 0.0 1019182
04:00+11nnw23785 0.0 1020128
07:00+11nnw11725 0.0 101961
10:00+16se235759 0.0 1018763
13:00+20se34455 0.0 10161239
16:00+22se45428 0.0 10141274
19:00+20s355199 0.0 1013984
22:00+16s126312 0.0 101541
26 april, mon
mon2601:00+15nw116615 0.0 101520
04:00+11nnw23756 0.0 1015125
07:00+11nnw337425 0.0 1015155
10:00+17nw335797 0.0 1014525
13:00+20nnw455099 0.0 1012722
16:00+20nw345488 0.4 1010568
19:00+19wsw1264100 0.4 1010274
22:00+11nw599195 1.3 1013327
27 april, tue
tue2701:00+10nw51089100 1.1 1014392
04:00+10nnw3691100 2.2 1013224
07:00+10nnw3593100 0.6 1014255
10:00+10nw3588100 0.6 1015266
13:00+10nnw4692100 1.9 1016272
16:00+12nw2387100 2.9 1015263
19:00+11n1292100 0.5 1014118
22:00+12nnw1295100 1.6 101668